Lemington, Vermont
Current Conditions -  °F | °C
As of 8:15 AM on Monday 22 Dec 2014 (Local Time) from KCDA Reporting Station
Overcast Overcast  
Wind Chill: 24°   Ceiling: 2800
Heat Index: 24°   Visibility: 7mi
Dew Point: 21°   Wind: 0mph
Humidity: 88%   Direction: NA
Pressure: 30.36"   Gusts: NA
Location:  44.7348°N, 71.6296°W
Report Text: KCDA 221315Z AUTO 00000KT 7SM OVC028 M04/M06 A3036 RMK AO2 T10451062
Loading
Personal Weather Stations






























Interactive Weather Map New forecast layout! Learn more

10-Day Weather Forecast

Advertisements
Track Severe Weather on mobile